Regional Weather Roundup
Issued by NWS

Home | Current Version | Previous Version | Text Only | Print | Product List | Glossary Off
Versions: 1 2 3 4 5 6 7 8 9 10 11 12 13 14 15 16 17 18 19 20 21 22 23 24 25 26 27 28 29 30 31 32 33 34 35 36 37 38 39 40 41 42 43 44 45 46 47 48 49 50

000
ASUS43 KMPX 251110
RWRMN
WEATHER ROUNDUP FOR MINNESOTA
NATIONAL WEATHER SERVICE TWIN CITIES/CHANHASSEN MN
500 AM CST SUN JAN 25 2015


NOTE: "FAIR" INDICATES FEW OR NO CLOUDS BELOW 12,000 FEET WITH NO
SIGNIFICANT WEATHER AND/OR OBSTRUCTIONS TO VISIBILITY. N/A MEANS
CURRENT SKY AND/OR WEATHER CONDITIONS ARE NOT AVAILABLE.

MNZ060>063-068>070-251200-
   Twin Cities Metro

CITY           SKY/WX    TMP DP  RH WIND       PRES   REMARKS
TWIN CITIES    CLOUDY    27  20  75 N18       29.84R WCI  14
ST PAUL        CLOUDY    28  21  75 N10       29.86R WCI  19
CRYSTAL        CLOUDY    26  18  71 N15       29.85R WCI  14
BLAINE         CLOUDY    27  19  74 N13G18    29.86R WCI  16
LAKEVILLE      CLOUDY    28  25  86 NE16      29.81R WCI  17
EDEN PRAIRIE   CLOUDY    28  21  75 NE15      29.82R WCI  16
SOUTH ST PAUL  CLOUDY    29  22  75 N12G17    29.84R WCI  19
LAKE ELMO      CLOUDY    28  21  74 N10G18    29.85R WCI  19
$$
MNZ001>005-007-008-013>017-022>024-027-028-251200-
   Northwest Minnesota

CITY           SKY/WX    TMP DP  RH WIND       PRES   REMARKS
BEMIDJI        CLOUDY    15   9  78 NE5       29.92R WCI   8
HALLOCK        CLEAR     10   5  79 NE5       30.01R WCI   2
ROSEAU         PTCLDY    10   3  72 E10       29.99S WCI  -3
WARROAD        MOCLDY     9   1  72 NE10      29.99S WCI  -6
THIEF RVR FALL PTCLDY    12   7  79 NE7       29.96F WCI   2
CROOKSTON      PTCLDY    18  10  73 NE7       29.98S WCI   8
FOSSTON        CLOUDY    12   9  85 NE7       29.95R WCI   2
DETROIT LAKES  PTCLDY    25  19  80 NE6       29.91R WCI  18
MOORHEAD       CLOUDY    21  19  93 N8        29.95R WCI  12
PARK RAPIDS    CLOUDY    22  13  68 NE6       29.88R WCI  14
MAHNOMEN       CLOUDY    19  13  77 NE8       29.92R WCI   9
$$
MNZ006-009>011-018-025>026-251200-
   North Central Minnesota

CITY           SKY/WX    TMP DP  RH WIND       PRES   REMARKS
BAUDETTE       MOCLDY     8  -1  66 E7        29.97S WCI  -3
FLAG ISLAND    CLOUDY     7  -2  66 E6        30.00R WCI  -3
INTL FALLS     MOCLDY     3  -5  69 E9        29.99S WCI -12
WASKISH        CLOUDY    10   3  72 NE8       29.96R WCI  -1
BIG FORK       CLOUDY    12   5  73 NE5       29.94S WCI   4
LONGVILLE      CLOUDY    21  16  79 N3        29.91R
GRAND RAPIDS   CLOUDY    21  12  68 CALM      29.91R
CRANE LAKE     PTCLDY     0  -6  78 CALM      30.02F
ORR            CLOUDY     7  -4  61 CALM      29.94S
COOK           CLOUDY     7   0  72 CALM      29.96R
WALKER         CLOUDY    18  11  73 NE3       29.91R
$$
MNZ012-019>021-037-251200-
   Northeast Minnesota

CITY           SKY/WX    TMP DP  RH WIND       PRES   REMARKS
DULUTH         FLURRIES  18  12  77 NE10      29.92R WCI   6
ELY            PTCLDY    -4  -8  84 CALM      29.98R
HIBBING        CLOUDY    17   8  67 E5        29.93R WCI  10
EVELETH        CLOUDY    14   9  79 NE6       29.96R WCI   5
DULUTH HARBOR  CLOUDY    25  18  74 NE21      29.98R WCI  10
TWO HARBORS    FLURRIES  18  12  79 N8        29.95R WCI   7
SILVER BAY     FLURRIES  14   9  79 N5        29.96R WCI   6
GRAND MARAIS     N/A      7  -3  64 NE7       30.05R WCI  -5
G MARAIS ARPRT CLOUDY    -4 -11  71 N7        29.93R WCI -18
$$
MNZ029>031-032-039>041-046>048-054>057-064-251200-
   West Central Minnesota

CITY           SKY/WX    TMP DP  RH WIND       PRES   REMARKS
FERGUS FALLS   MOCLDY    27  23  86 N5        29.92R WCI  21
WHEATON        CLOUDY    25  23  93 NW12      29.93R WCI  14
MORRIS         CLOUDY    30  28  93 N8        29.87R WCI  23
ALEXANDRIA     CLOUDY    30  26  85 NE7       29.86R WCI  23
ELBOW LAKE     CLOUDY    29  26  87 N6        29.88R WCI  23
WADENA         CLOUDY    21  18  86 NE6       29.88R WCI  14
GLENWOOD       CLOUDY    28  27  93 NE12      29.86R WCI  18
APPLETON       CLOUDY    34  30  86 N12       29.87R WCI  25
BENSON         CLOUDY    34  30  86 E5        29.86R WCI  30
ORTONVILLE     CLOUDY    28  27  93 NW10      29.89R WCI  19
MADISON        CLOUDY    36  34  93 N13       29.87R
WILLMAR        CLOUDY    32  28  86 NE9       29.86R WCI  24
$$
MNZ033>034-036-042>043-049>051-058-059-251200-
   Central Minnesota

CITY           SKY/WX    TMP DP  RH WIND       PRES   REMARKS
ST CLOUD       CLOUDY    26  20  77 N9        29.88R WCI  17
SAUK CENTRE    CLOUDY    27  24  86 NE9       29.87R WCI  18
PAYNESVILLE    CLOUDY    26  25  94 N9        29.86R WCI  17
AITKIN         CLOUDY    23  16  74 NE8       29.90R WCI  14
PINE RIVER     CLOUDY    25  18  74 NE3       29.93R
BRAINERD       CLOUDY    22  15  75 E7        29.90R WCI  13
STAPLES        CLOUDY    25  21  86 NE5       29.89R WCI  19
LONG PRAIRIE   CLOUDY    27  23  86 NE7       29.88R WCI  19
LITTLE FALLS   CLOUDY    25  18  74 NE3       29.90R
LITCHFIELD     CLOUDY    28  27  93 NE10      29.86R WCI  19
BUFFALO        MOCLDY    24  19  80 N8        29.88R WCI  15
MAPLE LAKE     CLOUDY    27  24  87 NE7       29.88R WCI  19
$$
MNZ037-044-045-052-053-251200-
   East Central Minnesota

CITY           SKY/WX    TMP DP  RH WIND       PRES   REMARKS
PRINCETON      CLOUDY    27  19  74 NE8       29.88R WCI  18
MORA           CLOUDY    21  14  73 NE8       29.92R WCI  12
CAMBRIDGE      MOCLDY    23  14  68 NE8       29.88R WCI  14
RUSH CITY      CLOUDY    20  14  75 NE9G20    29.91R WCI  10
MOOSE LAKE     CLOUDY    19  12  73 NE5G18    29.92R WCI  13
HINCKLEY       CLOUDY    21  14  73 NE10G17   29.92R WCI  10
CLOQUET        FLURRIES  19  12  73 E14G21    29.93R WCI   6
MCGREGOR       CLOUDY    21  14  73 E10       29.92S WCI  10
$$
MNZ071>073-080-081-089-090-097-098-251200-
   Southwest Minnesota

CITY           SKY/WX    TMP DP  RH WIND       PRES   REMARKS
MONTEVIDEO     CLOUDY    32  32 100 E7        29.86R WCI  26
GRANITE FALLS  CLOUDY    32  32  98 N8        29.86R WCI  25
CANBY          CLOUDY    32  32  99 N12       29.86R WCI  23
MARSHALL       CLOUDY    32  30  93 N12       29.85R WCI  23
REDWOOD FALLS  CLOUDY    32  29  88 N9        29.83R WCI  24
OLIVIA         CLOUDY    30  28  93 NE15      29.84R WCI  19
PIPESTONE      CLOUDY    34  32  93 NE10      29.79R FOG     WCI  26
WINDOM         LGT SNOW  34  32  93 N13       29.78R WCI  25
WORTHINGTON    CLOUDY    32  30  93 N16       29.78R WCI  21
JACKSON        MIX PCPN  32  32 100 N17       29.76R WCI  21
TRACY          LGT SNOW  33  32  97 N14       29.82R WCI  23
SLAYTON        LGT SNOW  32  31  97 N13       29.80R WCI  22
$$
MNZ065>067-074>077-082>085-091>093-251200-
   South Central Minnesota

CITY           SKY/WX    TMP DP  RH WIND       PRES   REMARKS
MANKATO        CLOUDY    32  28  86 NE17      29.78R WCI  21
NEW ULM        CLOUDY    30  28  93 NE13G23   29.81R WCI  20
ST JAMES       LGT SNOW  34  32  93 N13       29.80R WCI  25
FAIRMONT       CLOUDY    34  28  80 N15       29.74R WCI  24
GLENCOE        CLOUDY    29  25  85 N10G24    29.83R WCI  19
FARIBAULT      CLOUDY    30  25  80 N14G22    29.79R WCI  20
OWATONNA       FLURRIES  32  28  86 NE10G16   29.76R WCI  24
WASECA         CLOUDY    32  30  93 NE20      29.77R WCI  20
ALBERT LEA     LGT SNOW  34  34 100 NE13      29.72R WCI  25
$$
MNZ078>079-086>088-094>096-251200-
   Southeast Minnesota

CITY           SKY/WX    TMP DP  RH WIND       PRES   REMARKS
ROCHESTER      CLOUDY    32  29  88 NE20      29.73R WCI  20
RED WING       CLOUDY    30  21  69 E7        29.80R WCI  23
STANTON        CLOUDY    31  25  78 NE13G18   29.78R WCI  21
DODGE CENTER   CLOUDY    30  28  93 NE13G22   29.74R WCI  20
WINONA         CLOUDY    34  30  86 E9G17     29.78R WCI  26
AUSTIN         LGT SNOW  34  30  86 NE10      29.71R WCI  26
PRESTON        LGT SNOW  32  30  93 NE12      29.72R WCI  23
$$
ABBREVIATIONS USED IN REMARKS
   TC - TEMPERATURES IN CELSIUS
  WCI - WIND CHILL INDEX
   HX - HEAT INDEX
  VSB - VISIBILITY
$$


USA.gov is the U.S. government's official web portal to all federal, state and local government web resources and services.